Location: Diebersbach
(48.5163°N, 8.0558°E)
Time: 11:06:43
(UTC+00:00)

NPP - Pass Details

Date: 20 June 2021
Orbit: 826 x 828 km, 98.7° (Epoch: 28 July)

Event Time Altitude Azimuth Distance (km) Brightness Sun altitude
Rises 01:23:53 0° 14° (NNE) 3,380 8.6 -13.6°
Reaches altitude 10° 01:26:15 10° 15° (NNE) 2,442 7.5 -13.4°
Maximum altitude 01:31:41 89° 106° (ESE) 835 3.7 -13.0°
Enters shadow 01:35:57 17° 196° (SSW) 1,989 5.0 -12.7°
